"Pseudo-MPEC" for C2YNJV2

Created 2020 Aug 6 7:07:05 UT using Find_Orb

Click here for an explanation of pseudo-MPECs

 
 Astrometry: 
     C2YNJV2  C2020 07 31.17986 16 02 25.67 +21 57 53.4    ~7V4q 21.0 GVNEOCPG96
     C2YNJV2  C2020 07 31.18509 16 02 21.99 +21 58 20.6    ~7V4q 21.4 GVNEOCPG96
     C2YNJV2  C2020 07 31.19032 16 02 18.27 +21 58 47.8    ~7V4q 21.4 GVNEOCPG96
     C2YNJV2 1C2020 08 02hCBBUTh?-'OAstrometryiuy(IEw#HIWyG*iQ+JsG8;Vm^v?%i:Y658
     C2YNJV2 1C2020 08 02L=$IAL%D]$EgHwrrmFt,;*ySZSr`vg?H*wK%#PI`/oNWF)mWybRo658
     C2YNJV2 1C2020 08 02B_B\6/U89RdsUnvp#ED4kxredacted;_yu8o7EZ^`ptILg=XQ6hE658
     C2YNJV2 1C2020 08 022^#X\7#4Ug+/\B.UVl;'A?-.\e9L-click88k;J'-ND)hereG-@D658
     C2YNJV2 1C2020 08 02;uTbjfor[]/BEEb^qoPd;F4BS^o;BqHbodexplanation]#M9c7[658

Station data:
(658) Dominion Astrophysical Observatory  (N48.519987 W123.417000)
   Canada/BritColumbia. 1.82-m Plaskett reflector.
(G96) Mt. Lemmon Survey  (N32.442754 W110.788720)  US/Arizona.  Observers T.
   A. Pruyne, B. M. Africano, E. J. Christensen, G. A. Farneth, D. C. Fuls,
   A. R. Gibbs, A. D. Grauer, H. Gröller, J. A. Johnson, R. A. Kowalski, S.
   M. Larson, G. J. Leonard, D. Rankin, R. L. Seaman, F. C. Shelly. 1.5-m
   reflector + 10K CCD.

Orbital elements:  C2YNJV2
   Perihelion 2020 Aug 25.645950 +/- 0.691 TT = 15:30:10 (JD 2459087.145950)
Epoch 2020 Aug  2.0 TT = JDT 2459063.5   Earth MOID: 0.0345   Ju: 0.5142
M 359.96507065 +/- 1.7              Sa: 0.5547   Ur: 0.4416   Ne: 0.1064
n   0.00147718 +/-                  Peri.  200.94043 +/- 0.28
a  76.3566635 +/-                   Node   140.21796 +/- 0.55
e   0.9877921 +/- 0.164             Incl.   11.40925 +/- 1.0
P 667.22                   H 24.3   G  0.15   U 10.4  
q 0.93214882 +/- 0.0118    Q 151.781178 +/- 1657              AutoNEOCP
From 8 observations 2020 July 31-Aug. 2; mean residual 0".21
Residuals in arcseconds: 
200731 G96  .10-  .15+    200802 658  .29+  .31+    200802 658  .07+  .08-    
200731 G96  .18+  .00     200802 658  .54-  .05-    200802 658  .27+  .14-    
200731 G96  .08-  .15-    200802 658  .09-  .04-    

Ephemerides (geocentric):
Date (UTC) HH   RA              Dec         delta   r     elong  mag " sig PA
---- -- -- --  -------------   -----------  ------ ------ -----  --- ---- ---
2020 08 06 07  13 11 58.793   +35 30 57.44  .04152 0.9925  57.5 22?? 2078  99
2020 08 06 08  13 09 32.438   +35 35 12.20  .04136 0.9923  56.9 22?? 2129  99
2020 08 06 09  13 07 04.725   +35 39 17.65  .04121 0.9920  56.4 22?? 2181  98
2020 08 06 10  13 04 35.669   +35 43 13.46  .04106 0.9918  55.9 22?? 2233  98
2020 08 06 11  13 02 05.288   +35 46 59.33  .04092 0.9915  55.4 22?? 2286  98
2020 08 06 12  12 59 33.600   +35 50 34.92  .04077 0.9913  54.8 22?? 2340  97
2020 08 06 13  12 57 00.627   +35 53 59.93  .04063 0.9910  54.3 22?? 2394  97
2020 08 06 14  12 54 26.389   +35 57 14.04  .04050 0.9908  53.7 22?? 2449  96
2020 08 06 15  12 51 50.911   +36 00 16.94  .04037 0.9905  53.2 22?? 2504  96
2020 08 06 16  12 49 14.218   +36 03 08.32  .04024 0.9903  52.7 22?? 2560  96
2020 08 06 17  12 46 36.337   +36 05 47.88  .04011 0.9900  52.1 22?? 2616  95
2020 08 06 18  12 43 57.297   +36 08 15.32  .03999 .98979  51.6 22?? 2673  95
2020 08 06 19  12 41 17.128   +36 10 30.35  .03987 .98955  51.0 22?? 2731  94
2020 08 06 20  12 38 35.862   +36 12 32.67  .03976 .98931  50.4 22?? 2788  94
2020 08 06 21  12 35 53.534   +36 14 22.01  .03965 .98906  49.9 22?? 2847  94
2020 08 06 22  12 33 10.178   +36 15 58.09  .03954 .98882  49.3 22?? 2905  93
2020 08 06 23  12 30 25.831   +36 17 20.64  .03944 .98858  48.8 22?? 2964  93
2020 08 07 00  12 27 40.532   +36 18 29.42  .03934 .98834  48.2 23?? 3024  92
2020 08 07 01  12 24 54.321   +36 19 24.16  .03924 .98810  47.6 23?? 3084  92
2020 08 07 02  12 22 07.240   +36 20 04.63  .03915 .98785  47.1 23?? 3144  92
2020 08 07 03  12 19 19.332   +36 20 30.61  .03906 .98761  46.5 23?? 3204  91
2020 08 07 04  12 16 30.641   +36 20 41.88  .03898 .98737  45.9 23?? 3264  91
2020 08 07 05  12 13 41.214   +36 20 38.25  .03889 .98713  45.3 23?? 3325  90
2020 08 07 06  12 10 51.097   +36 20 19.51  .03882 .98690  44.7 23?? 3386  90
2020 08 07 07  12 08 00.339   +36 19 45.50  .03874 .98666  44.2 23?? 3446  89
2020 08 07 08  12 05 08.989   +36 18 56.05  .03867 .98642  43.6 23?? 3507  89
2020 08 07 09  12 02 17.099   +36 17 51.02  .03861 .98618  43.0 23?? 3568  89
2020 08 07 10  11 59 24.720   +36 16 30.27  .03855 .98594  42.4 23?? 3629  88
2020 08 07 11  11 56 31.904   +36 14 53.70  .03849 .98571  41.8 23?? 3690  88
2020 08 07 12  11 53 38.706   +36 13 01.20  .03844 .98547  41.2 23?? 3751  87
2020 08 07 13  11 50 45.178   +36 10 52.70  .03839 .98524  40.6 23?? 3812  87
2020 08 07 14  11 47 51.377   +36 08 28.12  .03834 .98500  40.1 23?? 3873  86
2020 08 07 15  11 44 57.358   +36 05 47.42  .03830 .98477  39.5 23?? 3933  86
2020 08 07 16  11 42 03.175   +36 02 50.57  .03826 .98453  38.9 24?? 3994  85
2020 08 07 17  11 39 08.886   +35 59 37.55  .03823 .98430  38.3 24?? 4053  85
2020 08 07 18  11 36 14.547   +35 56 08.39  .03820 .98406  37.7 24?? 4113  85
2020 08 07 19  11 33 20.213   +35 52 23.09  .03818 .98383  37.1 24?? 4172  84
2020 08 07 20  11 30 25.942   +35 48 21.70  .03815 .98360  36.5 24?? 4231  84
2020 08 07 21  11 27 31.790   +35 44 04.29  .03814 .98337  35.9 24?? 4290  83
2020 08 07 22  11 24 37.813   +35 39 30.93  .03812 .98313  35.3 24?? 4348  83
2020 08 07 23  11 21 44.066   +35 34 41.72  .03812 .98290  34.7 24?? 4405  82
2020 08 08 00  11 18 50.605   +35 29 36.77  .03811 .98267  34.2 24?? 4462  82
2020 08 08 01  11 15 57.485   +35 24 16.22  .03811 .98244  33.6 24?? 4519  82
2020 08 08 02  11 13 04.760   +35 18 40.22  .03811 .98221  33.0 24?? 4575  81
2020 08 08 03  11 10 12.483   +35 12 48.94  .03812 .98198  32.4 25?? 4630  81
2020 08 08 04  11 07 20.706   +35 06 42.55  .03813 .98176  31.8 25?? 4684  80
2020 08 08 05  11 04 29.483   +35 00 21.25  .03815 .98153  31.2 25?? 4738  80
2020 08 08 06  11 01 38.862   +34 53 45.27  .03817 .98130  30.7 25?? 4791  80